Data supplied by UK-AIR on 26/4/2016
All Data GMT hour ending 
Status: R =Ratified P=Provisional,P*=As supplied
,,Shaw Crompton Way,,,,,,,,,,,,,,,,,,,,,,,
Date,time,"Nitric oxide",status,unit,"Nitrogen dioxide",status,unit,"Nitrogen oxides as nitrogen dioxide",status,unit
 
01-01-2015,01:00,2.96109,R,ugm-3,11.81160,R,ugm-3,16.35188,R,ugm-3
01-01-2015,02:00,2.46758,R,ugm-3,11.06126,R,ugm-3,14.84483,R,ugm-3
01-01-2015,03:00,2.96109,R,ugm-3,7.66721,R,ugm-3,12.20749,R,ugm-3
01-01-2015,04:00,2.59095,R,ugm-3,6.53932,R,ugm-3,10.51206,R,ugm-3
01-01-2015,05:00,1.48055,R,ugm-3,7.11163,R,ugm-3,9.38177,R,ugm-3
01-01-2015,06:00,1.85068,R,ugm-3,6.54410,R,ugm-3,9.38177,R,ugm-3
01-01-2015,07:00,1.48055,R,ugm-3,5.98134,R,ugm-3,8.25148,R,ugm-3
01-01-2015,08:00,1.48055,R,ugm-3,4.85106,R,ugm-3,7.12119,R,ugm-3
01-01-2015,09:00,2.22082,R,ugm-3,7.10685,R,ugm-3,10.51206,R,ugm-3
01-01-2015,10:00,2.96109,R,ugm-3,7.66721,R,ugm-3,12.20749,R,ugm-3
01-01-2015,11:00,3.70136,R,ugm-3,8.79272,R,ugm-3,14.46806,R,ugm-3
01-01-2015,12:00,4.44164,R,ugm-3,11.04851,R,ugm-3,17.85893,R,ugm-3
01-01-2015,13:00,4.81177,R,ugm-3,10.48098,R,ugm-3,17.85893,R,ugm-3
01-01-2015,14:00,3.70136,R,ugm-3,9.92301,R,ugm-3,15.59835,R,ugm-3
01-01-2015,15:00,5.18191,R,ugm-3,12.17402,R,ugm-3,20.11950,R,ugm-3
01-01-2015,16:00,3.70136,R,ugm-3,12.18358,R,ugm-3,17.85893,R,ugm-3
01-01-2015,17:00,2.96109,R,ugm-3,9.36264,R,ugm-3,13.90292,R,ugm-3
01-01-2015,18:00,4.07150,R,ugm-3,9.92062,R,ugm-3,16.16349,R,ugm-3
01-01-2015,19:00,4.07150,R,ugm-3,10.48576,R,ugm-3,16.72864,R,ugm-3
01-01-2015,20:00,4.07150,R,ugm-3,11.61605,R,ugm-3,17.85893,R,ugm-3
01-01-2015,21:00,3.33123,R,ugm-3,10.49054,R,ugm-3,15.59835,R,ugm-3
01-01-2015,22:00,3.70136,R,ugm-3,8.22758,R,ugm-3,13.90292,R,ugm-3
01-01-2015,23:00,3.70136,R,ugm-3,6.53214,R,ugm-3,12.20749,R,ugm-3
01-01-2015,24:00,4.81177,R,ugm-3,9.91583,R,ugm-3,17.29378,R,ugm-3
02-01-2015,01:00,2.46758,R,ugm-3,2.77823,R,ugm-3,6.56179,R,ugm-3
02-01-2015,02:00,1.48055,R,ugm-3,1.27500,R,ugm-3,3.54514,R,ugm-3
02-01-2015,03:00,1.85068,R,ugm-3,0.89601,R,ugm-3,3.73368,R,ugm-3
02-01-2015,04:00,1.48055,R,ugm-3,0.33230,R,ugm-3,2.60243,R,ugm-3
02-01-2015,05:00,2.96109,R,ugm-3,7.11211,R,ugm-3,11.65238,R,ugm-3
02-01-2015,06:00,4.81177,R,ugm-3,8.79941,R,ugm-3,16.17736,R,ugm-3
02-01-2015,07:00,5.18191,R,ugm-3,8.79750,R,ugm-3,16.74298,R,ugm-3
02-01-2015,08:00,8.88327,R,ugm-3,11.04086,R,ugm-3,24.66169,R,ugm-3
02-01-2015,09:00,11.10409,R,ugm-3,13.85750,R,ugm-3,30.88353,R,ugm-3
02-01-2015,10:00,9.25341,R,ugm-3,13.30144,R,ugm-3,27.48980,R,ugm-3
02-01-2015,11:00,8.51313,R,ugm-3,15.56775,R,ugm-3,28.62104,R,ugm-3
02-01-2015,12:00,11.47423,R,ugm-3,16.68369,R,ugm-3,34.27726,R,ugm-3
02-01-2015,13:00,9.99368,R,ugm-3,12.73199,R,ugm-3,28.05542,R,ugm-3
02-01-2015,14:00,14.43532,R,ugm-3,18.93088,R,ugm-3,41.06472,R,ugm-3
02-01-2015,15:00,12.58463,R,ugm-3,20.07169,R,ugm-3,39.36786,R,ugm-3
02-01-2015,16:00,22.57831,R,ugm-3,30.20124,R,ugm-3,64.82084,R,ugm-3
02-01-2015,17:00,29.61090,R,ugm-3,43.17421,R,ugm-3,88.57696,R,ugm-3
02-01-2015,18:00,23.68872,R,ugm-3,43.20481,R,ugm-3,79.52701,R,ugm-3
02-01-2015,19:00,19.24709,R,ugm-3,48.31836,R,ugm-3,77.83014,R,ugm-3
02-01-2015,20:00,38.86431,R,ugm-3,62.92316,R,ugm-3,122.51427,R,ugm-3
02-01-2015,21:00,18.87695,R,ugm-3,47.18903,R,ugm-3,76.13328,R,ugm-3
02-01-2015,22:00,18.13668,R,ugm-3,46.06161,R,ugm-3,73.87079,R,ugm-3
02-01-2015,23:00,12.58463,R,ugm-3,31.38413,R,ugm-3,50.68029,R,ugm-3
02-01-2015,24:00,11.84436,R,ugm-3,30.25671,R,ugm-3,48.41781,R,ugm-3
03-01-2015,01:00,27.66013,R,ugm-3,32.77898,R,ugm-3,75.19058,R,ugm-3
03-01-2015,02:00,10.86648,R,ugm-3,20.06659,R,ugm-3,36.72829,R,ugm-3
03-01-2015,03:00,3.33403,R,ugm-3,11.63087,R,ugm-3,16.74298,R,ugm-3
03-01-2015,04:00,2.59314,R,ugm-3,7.67630,R,ugm-3,11.65238,R,ugm-3
03-01-2015,05:00,4.44538,R,ugm-3,9.92683,R,ugm-3,16.74298,R,ugm-3
03-01-2015,06:00,3.70448,R,ugm-3,16.71908,R,ugm-3,22.39920,R,ugm-3
03-01-2015,07:00,8.89075,R,ugm-3,20.64496,R,ugm-3,34.27726,R,ugm-3
03-01-2015,08:00,10.74300,R,ugm-3,24.59236,R,ugm-3,41.06472,R,ugm-3
03-01-2015,09:00,14.81792,R,ugm-3,31.35353,R,ugm-3,54.07403,R,ugm-3
03-01-2015,10:00,48.15825,R,ugm-3,63.37882,R,ugm-3,137.22044,R,ugm-3
03-01-2015,11:00,53.34453,R,ugm-3,64.47659,R,ugm-3,146.27039,R,ugm-3
03-01-2015,12:00,52.23318,R,ugm-3,59.95879,R,ugm-3,140.04855,R,ugm-3
03-01-2015,13:00,47.04691,R,ugm-3,57.72977,R,ugm-3,129.86736,R,ugm-3
03-01-2015,14:00,59.27170,R,ugm-3,65.56958,R,ugm-3,156.45158,R,ugm-3
03-01-2015,15:00,50.01049,R,ugm-3,61.67000,R,ugm-3,138.35168,R,ugm-3
03-01-2015,16:00,46.30601,R,ugm-3,67.35012,R,ugm-3,138.35168,R,ugm-3
03-01-2015,17:00,48.52870,R,ugm-3,61.67956,R,ugm-3,136.08920,R,ugm-3
03-01-2015,18:00,53.71498,R,ugm-3,69.56480,R,ugm-3,151.92661,R,ugm-3
03-01-2015,19:00,71.86693,R,ugm-3,83.02258,R,ugm-3,193.21701,R,ugm-3
03-01-2015,20:00,75.94186,R,ugm-3,72.81509,R,ugm-3,189.25765,R,ugm-3
03-01-2015,21:00,83.35082,R,ugm-3,75.02977,R,ugm-3,202.83258,R,ugm-3
03-01-2015,22:00,99.65054,R,ugm-3,67.57149,R,ugm-3,220.36686,R,ugm-3
03-01-2015,23:00,76.31231,R,ugm-3,69.41897,R,ugm-3,186.42954,R,ugm-3
03-01-2015,24:00,56.67856,R,ugm-3,58.79886,R,ugm-3,145.70477,R,ugm-3
04-01-2015,01:00,71.61997,R,ugm-3,56.76938,R,ugm-3,166.58513,R,ugm-3
04-01-2015,02:00,48.40522,R,ugm-3,56.13443,R,ugm-3,130.35473,R,ugm-3
04-01-2015,03:00,6.66807,R,ugm-3,26.34660,R,ugm-3,36.57083,R,ugm-3
04-01-2015,04:00,2.59314,R,ugm-3,25.23544,R,ugm-3,29.21153,R,ugm-3
04-01-2015,05:00,8.14986,R,ugm-3,29.73555,R,ugm-3,42.23183,R,ugm-3
04-01-2015,06:00,15.18837,R,ugm-3,34.79411,R,ugm-3,58.08263,R,ugm-3
04-01-2015,07:00,35.56302,R,ugm-3,44.87873,R,ugm-3,99.40793,R,ugm-3
04-01-2015,08:00,55.93766,R,ugm-3,49.30234,R,ugm-3,135.07223,R,ugm-3
04-01-2015,09:00,138.17714,R,ugm-3,64.72856,R,ugm-3,276.59723,R,ugm-3
04-01-2015,10:00,135.95445,R,ugm-3,69.26884,R,ugm-3,277.72943,R,ugm-3
04-01-2015,11:00,105.94816,R,ugm-3,76.78305,R,ugm-3,239.23463,R,ugm-3
04-01-2015,12:00,56.30811,R,ugm-3,57.79193,R,ugm-3,144.12983,R,ugm-3
04-01-2015,13:00,36.67436,R,ugm-3,55.06279,R,ugm-3,111.29603,R,ugm-3
04-01-2015,14:00,34.45167,R,ugm-3,58.47086,R,ugm-3,111.29603,R,ugm-3
04-01-2015,15:00,39.26750,R,ugm-3,68.06970,R,ugm-3,128.27903,R,ugm-3
04-01-2015,16:00,35.19257,R,ugm-3,66.39244,R,ugm-3,120.35363,R,ugm-3
04-01-2015,17:00,36.67436,R,ugm-3,73.74409,R,ugm-3,129.97733,R,ugm-3
04-01-2015,18:00,27.04271,R,ugm-3,54.54641,R,ugm-3,96.01133,R,ugm-3
04-01-2015,19:00,23.33823,R,ugm-3,42.67744,R,ugm-3,78.46223,R,ugm-3
04-01-2015,20:00,25.93137,R,ugm-3,46.62675,R,ugm-3,86.38763,R,ugm-3
04-01-2015,21:00,36.30391,R,ugm-3,48.83760,R,ugm-3,104.50283,R,ugm-3
04-01-2015,22:00,44.82422,R,ugm-3,53.88851,R,ugm-3,122.61803,R,ugm-3
04-01-2015,23:00,54.08542,R,ugm-3,56.10510,R,ugm-3,139.03493,R,ugm-3
04-01-2015,24:00,50.38094,R,ugm-3,57.25643,R,ugm-3,134.50613,R,ugm-3
05-01-2015,01:00,107.27321,R,ugm-3,65.50504,R,ugm-3,229.98833,R,ugm-3
05-01-2015,02:00,46.46858,R,ugm-3,44.00790,R,ugm-3,115.25873,R,ugm-3
05-01-2015,03:00,52.27715,R,ugm-3,46.42355,R,ugm-3,126.58073,R,ugm-3
05-01-2015,04:00,20.76256,R,ugm-3,34.17255,R,ugm-3,66.00803,R,ugm-3
05-01-2015,05:00,11.86432,R,ugm-3,28.00283,R,ugm-3,46.19453,R,ugm-3
05-01-2015,06:00,28.17775,R,ugm-3,33.55864,R,ugm-3,76.76393,R,ugm-3
05-01-2015,07:00,74.89351,R,ugm-3,63.26072,R,ugm-3,178.09583,R,ugm-3
05-01-2015,08:00,117.90166,R,ugm-3,79.40031,R,ugm-3,260.18033,R,ugm-3
05-01-2015,09:00,57.46779,R,ugm-3,58.84428,R,ugm-3,146.96033,R,ugm-3
05-01-2015,10:00,34.48067,R,ugm-3,54.46370,R,ugm-3,107.33333,R,ugm-3
05-01-2015,11:00,35.96371,R,ugm-3,56.71853,R,ugm-3,111.86213,R,ugm-3
05-01-2015,12:00,38.18827,R,ugm-3,56.13809,R,ugm-3,114.69263,R,ugm-3
05-01-2015,13:00,28.54851,R,ugm-3,55.06805,R,ugm-3,98.84183,R,ugm-3
05-01-2015,14:00,42.26663,R,ugm-3,60.64059,R,ugm-3,125.44853,R,ugm-3
05-01-2015,15:00,44.86195,R,ugm-3,64.02046,R,ugm-3,132.80783,R,ugm-3
05-01-2015,16:00,37.81751,R,ugm-3,69.72688,R,ugm-3,127.71293,R,ugm-3
05-01-2015,17:00,32.25611,R,ugm-3,65.80004,R,ugm-3,115.25873,R,ugm-3
05-01-2015,18:00,43.74967,R,ugm-3,62.89543,R,ugm-3,129.97733,R,ugm-3
05-01-2015,19:00,20.02104,R,ugm-3,47.76373,R,ugm-3,78.46223,R,ugm-3
05-01-2015,20:00,20.76256,R,ugm-3,46.62675,R,ugm-3,78.46223,R,ugm-3
05-01-2015,21:00,11.86432,R,ugm-3,38.75873,R,ugm-3,56.95043,R,ugm-3
05-01-2015,22:00,8.15672,R,ugm-3,29.15893,R,ugm-3,41.66573,R,ugm-3
05-01-2015,23:00,8.52748,R,ugm-3,28.02434,R,ugm-3,41.09963,R,ugm-3
05-01-2015,24:00,4.81988,R,ugm-3,18.42455,R,ugm-3,25.81493,R,ugm-3
06-01-2015,01:00,12.86382,R,ugm-3,19.33155,R,ugm-3,39.05580,R,ugm-3
06-01-2015,02:00,3.46334,R,ugm-3,13.34925,R,ugm-3,18.65963,R,ugm-3
06-01-2015,03:00,5.56608,R,ugm-3,15.60218,R,ugm-3,24.13671,R,ugm-3
06-01-2015,04:00,4.45286,R,ugm-3,10.50919,R,ugm-3,17.33681,R,ugm-3
06-01-2015,05:00,5.93715,R,ugm-3,9.93353,R,ugm-3,19.03703,R,ugm-3
06-01-2015,06:00,9.27679,R,ugm-3,17.27753,R,ugm-3,31.50174,R,ugm-3
06-01-2015,07:00,13.72966,R,ugm-3,22.91366,R,ugm-3,43.96551,R,ugm-3
06-01-2015,08:00,16.69823,R,ugm-3,34.79411,R,ugm-3,60.39771,R,ugm-3
06-01-2015,09:00,24.49074,R,ugm-3,43.80868,R,ugm-3,81.36062,R,ugm-3
06-01-2015,10:00,23.00645,R,ugm-3,46.65066,R,ugm-3,81.92672,R,ugm-3
06-01-2015,11:00,14.84287,R,ugm-3,27.43959,R,ugm-3,50.19834,R,ugm-3
06-01-2015,12:00,15.95609,R,ugm-3,26.86584,R,ugm-3,51.33150,R,ugm-3
06-01-2015,13:00,24.86181,R,ugm-3,31.90911,R,ugm-3,70.03001,R,ugm-3
06-01-2015,14:00,19.29573,R,ugm-3,26.84481,R,ugm-3,56.43118,R,ugm-3
06-01-2015,15:00,35.99396,R,ugm-3,43.73409,R,ugm-3,98.92406,R,ugm-3
06-01-2015,16:00,68.27720,R,ugm-3,65.62266,R,ugm-3,170.31291,R,ugm-3
06-01-2015,17:00,67.53506,R,ugm-3,70.72712,R,ugm-3,174.27943,R,ugm-3
06-01-2015,18:00,76.81185,R,ugm-3,92.76390,R,ugm-3,210.54043,R,ugm-3
06-01-2015,19:00,70.87470,R,ugm-3,91.66995,R,ugm-3,200.34298,R,ugm-3
06-01-2015,20:00,30.42788,R,ugm-3,67.00061,R,ugm-3,113.65605,R,ugm-3
06-01-2015,21:00,34.88075,R,ugm-3,62.43834,R,ugm-3,115.92141,R,ugm-3
06-01-2015,22:00,25.97502,R,ugm-3,60.22941,R,ugm-3,100.05722,R,ugm-3
06-01-2015,23:00,22.26431,R,ugm-3,46.65544,R,ugm-3,80.79356,R,ugm-3
06-01-2015,24:00,12.98751,R,ugm-3,35.95118,R,ugm-3,55.86508,R,ugm-3
07-01-2015,01:00,38.59146,R,ugm-3,41.07285,R,ugm-3,100.24560,R,ugm-3
07-01-2015,02:00,17.81144,R,ugm-3,26.85405,R,ugm-3,54.16455,R,ugm-3
07-01-2015,03:00,4.82393,R,ugm-3,14.47284,R,ugm-3,21.86944,R,ugm-3
07-01-2015,04:00,12.98751,R,ugm-3,14.98635,R,ugm-3,34.90026,R,ugm-3
07-01-2015,05:00,4.45286,R,ugm-3,11.64330,R,ugm-3,18.47093,R,ugm-3
07-01-2015,06:00,7.79251,R,ugm-3,17.85414,R,ugm-3,29.80249,R,ugm-3
07-01-2015,07:00,13.72966,R,ugm-3,28.58040,R,ugm-3,49.63224,R,ugm-3
07-01-2015,08:00,21.89323,R,ugm-3,43.82589,R,ugm-3,77.39505,R,ugm-3
07-01-2015,09:00,20.40895,R,ugm-3,38.73482,R,ugm-3,70.02810,R,ugm-3
07-01-2015,10:00,,,,,,,,,
07-01-2015,11:00,23.74859,R,ugm-3,38.14768,R,ugm-3,74.56168,R,ugm-3
07-01-2015,12:00,19.66680,R,ugm-3,41.00783,R,ugm-3,71.16317,R,ugm-3
07-01-2015,13:00,18.55359,R,ugm-3,35.91484,R,ugm-3,64.36328,R,ugm-3
07-01-2015,14:00,14.10073,R,ugm-3,30.27774,R,ugm-3,51.89856,R,ugm-3
07-01-2015,15:00,15.21394,R,ugm-3,31.40325,R,ugm-3,54.73097,R,ugm-3
07-01-2015,16:00,22.63538,R,ugm-3,42.12090,R,ugm-3,76.82799,R,ugm-3
07-01-2015,17:00,18.92466,R,ugm-3,36.47903,R,ugm-3,65.49643,R,ugm-3
07-01-2015,18:00,17.06930,R,ugm-3,29.69156,R,ugm-3,55.86413,R,ugm-3
07-01-2015,19:00,10.39001,R,ugm-3,22.36860,R,ugm-3,38.29973,R,ugm-3
07-01-2015,20:00,6.67929,R,ugm-3,17.29474,R,ugm-3,27.53618,R,ugm-3
07-01-2015,21:00,7.42144,R,ugm-3,13.89049,R,ugm-3,25.26986,R,ugm-3
07-01-2015,22:00,5.19501,R,ugm-3,13.33778,R,ugm-3,21.30334,R,ugm-3
07-01-2015,23:00,4.45286,R,ugm-3,9.94309,R,ugm-3,16.77071,R,ugm-3
07-01-2015,24:00,5.56608,R,ugm-3,10.50249,R,ugm-3,19.03703,R,ugm-3
08-01-2015,01:00,17.84138,R,ugm-3,26.18786,R,ugm-3,53.54426,R,ugm-3
08-01-2015,02:00,4.95594,R,ugm-3,8.83511,R,ugm-3,16.43411,R,ugm-3
08-01-2015,03:00,4.46035,R,ugm-3,8.83766,R,ugm-3,15.67676,R,ugm-3
08-01-2015,04:00,5.57543,R,ugm-3,7.69590,R,ugm-3,16.24478,R,ugm-3
08-01-2015,05:00,6.69052,R,ugm-3,15.64234,R,ugm-3,25.90099,R,ugm-3
08-01-2015,06:00,26.39037,R,ugm-3,48.48570,R,ugm-3,88.95038,R,ugm-3
08-01-2015,07:00,56.86940,R,ugm-3,65.93726,R,ugm-3,153.13579,R,ugm-3
08-01-2015,08:00,74.71078,R,ugm-3,86.29391,R,ugm-3,200.84884,R,ugm-3
08-01-2015,09:00,110.39353,R,ugm-3,96.33454,R,ugm-3,265.60226,R,ugm-3
08-01-2015,10:00,131.58017,R,ugm-3,98.49758,R,ugm-3,300.25103,R,ugm-3
08-01-2015,11:00,69.87874,R,ugm-3,78.93461,R,ugm-3,186.08051,R,ugm-3
08-01-2015,12:00,42.74497,R,ugm-3,48.96956,R,ugm-3,114.51094,R,ugm-3
08-01-2015,13:00,18.21308,R,ugm-3,30.91939,R,ugm-3,58.84571,R,ugm-3
08-01-2015,14:00,41.25819,R,ugm-3,47.84119,R,ugm-3,111.10286,R,ugm-3
08-01-2015,15:00,43.11667,R,ugm-3,48.96765,R,ugm-3,115.07895,R,ugm-3
08-01-2015,16:00,36.42615,R,ugm-3,42.18593,R,ugm-3,98.03858,R,ugm-3
08-01-2015,17:00,51.66566,R,ugm-3,50.62770,R,ugm-3,129.84728,R,ugm-3
08-01-2015,18:00,46.09023,R,ugm-3,68.83279,R,ugm-3,139.50349,R,ugm-3
08-01-2015,19:00,44.97514,R,ugm-3,84.74288,R,ugm-3,153.70380,R,ugm-3
08-01-2015,20:00,23.04512,R,ugm-3,57.59111,R,ugm-3,92.92646,R,ugm-3
08-01-2015,21:00,16.35460,R,ugm-3,36.60908,R,ugm-3,61.68578,R,ugm-3
08-01-2015,22:00,7.06221,R,ugm-3,23.59260,R,ugm-3,34.42118,R,ugm-3
08-01-2015,23:00,5.20374,R,ugm-3,13.94595,R,ugm-3,21.92490,R,ugm-3
08-01-2015,24:00,2.23017,R,ugm-3,7.14510,R,ugm-3,10.56465,R,ugm-3
09-01-2015,01:00,4.47157,R,ugm-3,6.57135,R,ugm-3,13.42766,R,ugm-3
09-01-2015,02:00,3.47789,R,ugm-3,3.54323,R,ugm-3,8.87591,R,ugm-3
09-01-2015,03:00,2.23579,R,ugm-3,7.72363,R,ugm-3,11.15179,R,ugm-3
09-01-2015,04:00,3.72631,R,ugm-3,8.85201,R,ugm-3,14.56560,R,ugm-3
09-01-2015,05:00,4.09894,R,ugm-3,8.28065,R,ugm-3,14.56560,R,ugm-3
09-01-2015,06:00,5.58946,R,ugm-3,12.82283,R,ugm-3,21.39323,R,ugm-3
09-01-2015,07:00,8.94314,R,ugm-3,9.38751,R,ugm-3,23.10013,R,ugm-3
09-01-2015,08:00,11.92419,R,ugm-3,18.47188,R,ugm-3,36.75538,R,ugm-3
09-01-2015,09:00,25.71153,R,ugm-3,32.60765,R,ugm-3,72.03144,R,ugm-3
09-01-2015,10:00,19.37681,R,ugm-3,28.09654,R,ugm-3,57.80723,R,ugm-3
09-01-2015,11:00,20.49470,R,ugm-3,33.21008,R,ugm-3,64.63485,R,ugm-3
09-01-2015,12:00,23.47575,R,ugm-3,36.03580,R,ugm-3,72.03144,R,ugm-3
09-01-2015,13:00,24.22101,R,ugm-3,36.59999,R,ugm-3,73.73835,R,ugm-3
09-01-2015,14:00,29.06521,R,ugm-3,52.50004,R,ugm-3,97.06607,R,ugm-3
09-01-2015,15:00,26.45679,R,ugm-3,55.36162,R,ugm-3,95.92813,R,ugm-3
09-01-2015,16:00,45.46097,R,ugm-3,58.08454,R,ugm-3,127.79038,R,ugm-3
09-01-2015,17:00,28.69258,R,ugm-3,45.67480,R,ugm-3,89.66948,R,ugm-3
09-01-2015,18:00,21.98522,R,ugm-3,31.49362,R,ugm-3,65.20382,R,ugm-3
09-01-2015,19:00,17.14102,R,ugm-3,26.40398,R,ugm-3,52.68651,R,ugm-3
09-01-2015,20:00,8.57051,R,ugm-3,15.07958,R,ugm-3,28.22085,R,ugm-3
09-01-2015,21:00,7.45262,R,ugm-3,12.81088,R,ugm-3,24.23807,R,ugm-3
09-01-2015,22:00,7.07999,R,ugm-3,20.77883,R,ugm-3,31.63466,R,ugm-3
09-01-2015,23:00,7.82525,R,ugm-3,21.34302,R,ugm-3,33.34157,R,ugm-3
09-01-2015,24:00,2.60842,R,ugm-3,9.42815,R,ugm-3,13.42766,R,ugm-3
10-01-2015,01:00,4.97673,R,ugm-3,6.57964,R,ugm-3,14.21051,R,ugm-3
10-01-2015,02:00,0.99535,R,ugm-3,4.32544,R,ugm-3,5.85161,R,ugm-3
10-01-2015,03:00,0.37326,R,ugm-3,2.04972,R,ugm-3,2.62204,R,ugm-3
10-01-2015,04:00,1.11976,R,ugm-3,2.04494,R,ugm-3,3.76189,R,ugm-3
10-01-2015,05:00,1.49302,R,ugm-3,2.61248,R,ugm-3,4.90174,R,ugm-3
10-01-2015,06:00,1.49302,R,ugm-3,3.75233,R,ugm-3,6.04159,R,ugm-3
10-01-2015,07:00,1.49302,R,ugm-3,4.89218,R,ugm-3,7.18144,R,ugm-3
10-01-2015,08:00,4.85231,R,ugm-3,7.15036,R,ugm-3,14.59046,R,ugm-3
10-01-2015,09:00,4.85231,R,ugm-3,7.15036,R,ugm-3,14.59046,R,ugm-3
10-01-2015,10:00,7.46509,R,ugm-3,9.98325,R,ugm-3,21.42956,R,ugm-3
10-01-2015,11:00,12.69065,R,ugm-3,10.51971,R,ugm-3,29.97844,R,ugm-3
10-01-2015,12:00,8.95811,R,ugm-3,13.96316,R,ugm-3,27.69874,R,ugm-3
10-01-2015,13:00,8.21160,R,ugm-3,12.25817,R,ugm-3,24.84911,R,ugm-3
10-01-2015,14:00,10.82438,R,ugm-3,14.52113,R,ugm-3,31.11829,R,ugm-3
10-01-2015,15:00,7.83835,R,ugm-3,11.69063,R,ugm-3,23.70926,R,ugm-3
10-01-2015,16:00,6.34533,R,ugm-3,15.11975,R,ugm-3,24.84911,R,ugm-3
10-01-2015,17:00,10.07787,R,ugm-3,20.79509,R,ugm-3,36.24761,R,ugm-3
10-01-2015,18:00,24.63480,R,ugm-3,40.07931,R,ugm-3,77.85214,R,ugm-3
10-01-2015,19:00,10.07787,R,ugm-3,20.22517,R,ugm-3,35.67769,R,ugm-3
10-01-2015,20:00,11.19764,R,ugm-3,24.77739,R,ugm-3,41.94686,R,ugm-3
10-01-2015,21:00,5.97207,R,ugm-3,15.69206,R,ugm-3,24.84911,R,ugm-3
10-01-2015,22:00,5.59882,R,ugm-3,9.99520,R,ugm-3,18.57994,R,ugm-3
10-01-2015,23:00,4.10580,R,ugm-3,8.29499,R,ugm-3,14.59046,R,ugm-3
10-01-2015,24:00,2.98604,R,ugm-3,4.88261,R,ugm-3,9.46114,R,ugm-3
11-01-2015,01:00,2.49252,R,ugm-3,4.32926,R,ugm-3,8.15108,R,ugm-3
11-01-2015,02:00,1.99402,R,ugm-3,0.52275,R,ugm-3,3.58020,R,ugm-3
11-01-2015,03:00,1.86939,R,ugm-3,0.33325,R,ugm-3,3.19961,R,ugm-3
11-01-2015,04:00,1.49551,R,ugm-3,0.90653,R,ugm-3,3.19961,R,ugm-3
11-01-2015,05:00,1.49551,R,ugm-3,2.04829,R,ugm-3,4.34138,R,ugm-3
11-01-2015,06:00,1.49551,R,ugm-3,2.04829,R,ugm-3,4.34138,R,ugm-3
11-01-2015,07:00,1.86939,R,ugm-3,2.04685,R,ugm-3,4.91321,R,ugm-3
11-01-2015,08:00,1.86939,R,ugm-3,3.18957,R,ugm-3,6.05593,R,ugm-3
11-01-2015,09:00,3.36490,R,ugm-3,5.46736,R,ugm-3,10.62681,R,ugm-3
11-01-2015,10:00,5.23429,R,ugm-3,7.74371,R,ugm-3,15.76952,R,ugm-3
11-01-2015,11:00,7.85144,R,ugm-3,10.01528,R,ugm-3,22.05399,R,ugm-3
11-01-2015,12:00,8.22532,R,ugm-3,11.15657,R,ugm-3,23.76855,R,ugm-3
11-01-2015,13:00,12.71186,R,ugm-3,20.84721,R,ugm-3,40.33845,R,ugm-3
11-01-2015,14:00,14.95513,R,ugm-3,24.83573,R,ugm-3,47.76660,R,ugm-3
11-01-2015,15:00,14.58125,R,ugm-3,28.83620,R,ugm-3,51.19380,R,ugm-3
11-01-2015,16:00,14.95513,R,ugm-3,25.97749,R,ugm-3,48.90836,R,ugm-3
11-01-2015,17:00,12.71186,R,ugm-3,22.56081,R,ugm-3,42.05205,R,ugm-3
11-01-2015,18:00,13.83349,R,ugm-3,20.26915,R,ugm-3,41.48021,R,ugm-3
11-01-2015,19:00,10.84247,R,ugm-3,29.42620,R,ugm-3,46.05109,R,ugm-3
11-01-2015,20:00,9.72083,R,ugm-3,26.57514,R,ugm-3,41.48021,R,ugm-3
11-01-2015,21:00,9.34695,R,ugm-3,26.57658,R,ugm-3,40.90838,R,ugm-3
11-01-2015,22:00,7.10369,R,ugm-3,23.16085,R,ugm-3,34.05302,R,ugm-3
11-01-2015,23:00,4.48654,R,ugm-3,15.17473,R,ugm-3,22.05399,R,ugm-3
11-01-2015,24:00,2.99103,R,ugm-3,8.89791,R,ugm-3,13.48408,R,ugm-3
12-01-2015,01:00,4.99336,R,ugm-3,11.19131,R,ugm-3,18.84769,R,ugm-3
12-01-2015,02:00,1.99734,R,ugm-3,2.04956,R,ugm-3,5.11211,R,ugm-3
12-01-2015,03:00,1.49801,R,ugm-3,2.62443,R,ugm-3,4.92134,R,ugm-3
12-01-2015,04:00,1.87251,R,ugm-3,6.05641,R,ugm-3,8.92755,R,ugm-3
12-01-2015,05:00,2.99602,R,ugm-3,6.62299,R,ugm-3,11.21681,R,ugm-3
12-01-2015,06:00,5.99203,R,ugm-3,12.33084,R,ugm-3,21.51849,R,ugm-3
12-01-2015,07:00,8.98804,R,ugm-3,23.76186,R,ugm-3,37.54333,R,ugm-3
12-01-2015,08:00,17.97609,R,ugm-3,32.30069,R,ugm-3,59.86364,R,ugm-3
12-01-2015,09:00,23.96812,R,ugm-3,32.27009,R,ugm-3,69.02069,R,ugm-3
12-01-2015,10:00,17.60159,R,ugm-3,33.44723,R,ugm-3,60.43596,R,ugm-3
12-01-2015,11:00,30.70915,R,ugm-3,44.82661,R,ugm-3,91.91332,R,ugm-3
12-01-2015,12:00,11.60956,R,ugm-3,24.89310,R,ugm-3,42.69417,R,ugm-3
12-01-2015,13:00,14.60557,R,ugm-3,23.16085,R,ugm-3,45.55575,R,ugm-3
12-01-2015,14:00,18.35059,R,ugm-3,28.86488,R,ugm-3,57.00206,R,ugm-3
12-01-2015,15:00,19.47410,R,ugm-3,33.43767,R,ugm-3,63.29753,R,ugm-3
12-01-2015,16:00,37.45018,R,ugm-3,53.94923,R,ugm-3,111.37205,R,ugm-3
12-01-2015,17:00,83.13941,R,ugm-3,89.77179,R,ugm-3,217.25044,R,ugm-3
12-01-2015,18:00,67.03583,R,ugm-3,104.73424,R,ugm-3,207.52107,R,ugm-3
12-01-2015,19:00,101.86450,R,ugm-3,108.56258,R,ugm-3,264.75263,R,ugm-3
12-01-2015,20:00,35.20317,R,ugm-3,84.29344,R,ugm-3,138.27088,R,ugm-3
12-01-2015,21:00,43.06771,R,ugm-3,70.51770,R,ugm-3,136.55393,R,ugm-3
12-01-2015,22:00,32.95616,R,ugm-3,51.11061,R,ugm-3,101.64268,R,ugm-3
12-01-2015,23:00,26.96413,R,ugm-3,55.71973,R,ugm-3,97.06416,R,ugm-3
12-01-2015,24:00,12.35856,R,ugm-3,42.05874,R,ugm-3,61.00827,R,ugm-3
13-01-2015,01:00,9.00301,R,ugm-3,26.47729,R,ugm-3,40.28171,R,ugm-3
13-01-2015,02:00,5.50184,R,ugm-3,12.73661,R,ugm-3,21.17265,R,ugm-3
13-01-2015,03:00,1.12538,R,ugm-3,9.51038,R,ugm-3,11.23594,R,ugm-3
13-01-2015,04:00,3.37613,R,ugm-3,11.21873,R,ugm-3,16.39538,R,ugm-3
13-01-2015,05:00,6.37713,R,ugm-3,15.21633,R,ugm-3,24.99446,R,ugm-3
13-01-2015,06:00,11.62889,R,ugm-3,16.33610,R,ugm-3,34.16681,R,ugm-3
13-01-2015,07:00,33.01104,R,ugm-3,38.01142,R,ugm-3,88.62764,R,ugm-3
13-01-2015,08:00,60.02008,R,ugm-3,71.69676,R,ugm-3,163.72626,R,ugm-3
13-01-2015,09:00,50.26681,R,ugm-3,75.75938,R,ugm-3,152.83409,R,ugm-3
13-01-2015,10:00,40.13843,R,ugm-3,72.37139,R,ugm-3,133.91612,R,ugm-3
13-01-2015,11:00,39.76330,R,ugm-3,62.62768,R,ugm-3,123.59723,R,ugm-3
13-01-2015,12:00,36.01205,R,ugm-3,62.64681,R,ugm-3,117.86451,R,ugm-3
13-01-2015,13:00,31.13541,R,ugm-3,52.35278,R,ugm-3,100.09308,R,ugm-3
13-01-2015,14:00,35.63692,R,ugm-3,61.50218,R,ugm-3,116.14469,R,ugm-3
13-01-2015,15:00,35.63692,R,ugm-3,59.20909,R,ugm-3,113.85160,R,ugm-3
13-01-2015,16:00,45.76531,R,ugm-3,64.89017,R,ugm-3,135.06266,R,ugm-3
13-01-2015,17:00,35.63692,R,ugm-3,65.51508,R,ugm-3,120.15759,R,ugm-3
13-01-2015,18:00,30.01004,R,ugm-3,54.65160,R,ugm-3,100.66635,R,ugm-3
13-01-2015,19:00,19.88165,R,ugm-3,43.81107,R,ugm-3,74.29584,R,ugm-3
13-01-2015,20:00,15.75527,R,ugm-3,31.22013,R,ugm-3,55.37787,R,ugm-3
13-01-2015,21:00,12.75427,R,ugm-3,31.80870,R,ugm-3,51.36497,R,ugm-3
13-01-2015,22:00,10.12839,R,ugm-3,22.07647,R,ugm-3,37.60644,R,ugm-3
13-01-2015,23:00,4.50151,R,ugm-3,16.94571,R,ugm-3,23.84792,R,ugm-3
13-01-2015,24:00,5.62688,R,ugm-3,11.20725,R,ugm-3,19.83502,R,ugm-3
14-01-2015,01:00,9.51898,R,ugm-3,17.33171,R,ugm-3,31.92728,R,ugm-3
14-01-2015,02:00,3.00599,R,ugm-3,9.70849,R,ugm-3,14.31761,R,ugm-3
14-01-2015,03:00,4.13324,R,ugm-3,10.65980,R,ugm-3,16.99734,R,ugm-3
14-01-2015,04:00,7.89073,R,ugm-3,17.53141,R,ugm-3,29.63036,R,ugm-3
14-01-2015,05:00,6.38774,R,ugm-3,12.94523,R,ugm-3,22.73963,R,ugm-3
14-01-2015,06:00,12.39972,R,ugm-3,19.80537,R,ugm-3,38.81801,R,ugm-3
14-01-2015,07:00,14.27847,R,ugm-3,37.59688,R,ugm-3,59.49023,R,ugm-3
14-01-2015,08:00,30.81143,R,ugm-3,62.77877,R,ugm-3,110.02230,R,ugm-3
14-01-2015,09:00,52.22913,R,ugm-3,74.15432,R,ugm-3,154.23787,R,ugm-3
14-01-2015,10:00,39.45366,R,ugm-3,65.60592,R,ugm-3,126.10069,R,ugm-3
14-01-2015,11:00,31.93868,R,ugm-3,51.28847,R,ugm-3,100.26042,R,ugm-3
14-01-2015,12:00,33.44167,R,ugm-3,49.55813,R,ugm-3,100.83465,R,ugm-3
14-01-2015,13:00,,,,,,,,,
14-01-2015,14:00,,,,,,,,,
14-01-2015,15:00,,,,,,,,,
14-01-2015,16:00,31.18718,R,ugm-3,47.84693,R,ugm-3,95.66660,R,ugm-3
14-01-2015,17:00,30.81143,R,ugm-3,46.12615,R,ugm-3,93.36968,R,ugm-3
14-01-2015,18:00,17.66021,R,ugm-3,29.54048,R,ugm-3,56.61908,R,ugm-3
14-01-2015,19:00,10.52098,R,ugm-3,23.26030,R,ugm-3,39.39224,R,ugm-3
14-01-2015,20:00,5.63624,R,ugm-3,14.09752,R,ugm-3,22.73963,R,ugm-3
14-01-2015,21:00,3.75749,R,ugm-3,10.66171,R,ugm-3,16.42312,R,ugm-3
14-01-2015,22:00,3.38174,R,ugm-3,7.21825,R,ugm-3,12.40352,R,ugm-3
14-01-2015,23:00,1.87875,R,ugm-3,4.92899,R,ugm-3,7.80969,R,ugm-3
14-01-2015,24:00,1.87875,R,ugm-3,3.78053,R,ugm-3,6.66124,R,ugm-3
15-01-2015,01:00,3.00350,R,ugm-3,7.42560,R,ugm-3,12.03090,R,ugm-3
15-01-2015,02:00,1.50175,R,ugm-3,4.36433,R,ugm-3,6.66698,R,ugm-3
15-01-2015,03:00,2.62806,R,ugm-3,6.08558,R,ugm-3,10.11521,R,ugm-3
15-01-2015,04:00,1.50175,R,ugm-3,6.08844,R,ugm-3,8.39109,R,ugm-3
15-01-2015,05:00,2.25262,R,ugm-3,8.96006,R,ugm-3,12.41404,R,ugm-3
15-01-2015,06:00,5.25612,R,ugm-3,14.12477,R,ugm-3,22.18404,R,ugm-3
15-01-2015,07:00,10.51224,R,ugm-3,25.03080,R,ugm-3,41.14935,R,ugm-3
15-01-2015,08:00,21.77536,R,ugm-3,37.07094,R,ugm-3,70.45937,R,ugm-3
15-01-2015,09:00,21.77536,R,ugm-3,50.28919,R,ugm-3,83.67761,R,ugm-3
15-01-2015,10:00,19.14730,R,ugm-3,42.24999,R,ugm-3,71.60878,R,ugm-3
15-01-2015,11:00,18.02099,R,ugm-3,31.33344,R,ugm-3,58.96524,R,ugm-3
15-01-2015,12:00,14.26662,R,ugm-3,27.32006,R,ugm-3,49.19524,R,ugm-3
15-01-2015,13:00,12.76487,R,ugm-3,25.02506,R,ugm-3,44.59759,R,ugm-3
15-01-2015,14:00,13.14031,R,ugm-3,24.44940,R,ugm-3,44.59759,R,ugm-3
15-01-2015,15:00,15.01749,R,ugm-3,29.04227,R,ugm-3,52.06877,R,ugm-3
15-01-2015,16:00,19.89818,R,ugm-3,39.37455,R,ugm-3,69.88466,R,ugm-3
15-01-2015,17:00,21.02449,R,ugm-3,37.07286,R,ugm-3,69.30996,R,ugm-3